Cairo, IL

9:51 AM CST on December 14, 2019 (GMT -0600)
Cairo Regional

Weather History for KCIR - October, 2019

Change the Weather History Date:

Sunday, October 13, 2019

  Actual Average Record
Temperature  
Mean Temperature 52 °F -  
Max Temperature 67 °F 71 °F 88 °F (1975)
Min Temperature 36 °F 51 °F 32 °F (1988)
Degree Days  
Heating Degree Days 14    
Growing Degree Days 2 (Base 50)    
Moisture  
Dew Point 39 °F    
Average Humidity 67    
Maximum Humidity 100    
Minimum Humidity 35    
Precipitation  
Precipitation 0.00 in - - ()
Sea Level Pressure  
Sea Level Pressure 30.03 in    
Wind  
Wind Speed 3 mph ()    
Max Wind Speed 13 mph    
Max Gust Speed 16 mph    
Visibility 10.0 miles    
Events      
Averages and records for this station are not official NWS values.
T = Trace of Precipitation, MM = Missing Value Source: Averaged Metar Reports

Daily Weather History Graph

Daily Weather History Graph

Search for Another Location

Airport or City:

Astronomy

Oct. 13, 2019 Rise Set
Actual Time 7:02 AM CDT 6:23 PM CDT
Civil Twilight 6:36 AM CDT 6:49 PM CDT
Nautical Twilight 6:06 AM CDT 7:19 PM CDT
Astronomical Twilight 5:36 AM CDT 7:49 PM CDT
Moon 6:44 PM CDT (10/13) 6:38 AM CDT (10/13)
Length of Visible Light 12h 12m
Length of Day
11h 20m
Full, 100% of the Moon is Illuminated
Oct 13
Full
Oct 13
Full
Oct 21
Last Quarter
Oct 27
New
Nov 4
First Quarter

Hourly Weather History & Observations

Time (CDT) Temp. Windchill Dew Point Humidity Pressure Visibility Wind Dir Wind Speed Gust Speed Precip Events Conditions
12:15 AM 46.2 °F 45.0 °F 37.6 °F 72% 30.05 in 10.0 mi SSW 3.5 mph - N/A   Clear
12:35 AM 45.3 °F 43.0 °F 37.8 °F 75% 30.05 in 10.0 mi SSW 4.6 mph - N/A   Clear
12:55 AM 43.0 °F - 37.9 °F 82% 30.05 in 10.0 mi Calm Calm - N/A   Clear
1:15 AM 39.7 °F - 37.6 °F 92% 30.05 in 10.0 mi Calm Calm - N/A   Clear
1:35 AM 39.6 °F - 36.9 °F 90% 30.05 in 10.0 mi Calm Calm - N/A   Clear
1:55 AM 39.4 °F - 37.2 °F 92% 30.05 in 10.0 mi Calm Calm - N/A   Clear
2:15 AM 40.3 °F 38.2 °F 37.8 °F 91% 30.05 in 10.0 mi SSW 3.5 mph - N/A   Clear
2:35 AM 44.6 °F 43.1 °F 38.3 °F 79% 30.05 in 10.0 mi SSW 3.5 mph - N/A   Clear
2:55 AM 42.3 °F 40.5 °F 37.9 °F 85% 30.04 in 10.0 mi SSW 3.5 mph - N/A   Clear
3:15 AM 39.4 °F - 37.2 °F 92% 30.04 in 10.0 mi Calm Calm - N/A   Clear
3:35 AM 42.1 °F - 37.4 °F 83% 30.03 in 10.0 mi Calm Calm - N/A   Clear
3:55 AM 38.7 °F - 36.9 °F 93% 30.03 in 10.0 mi Calm Calm - N/A   Clear
4:15 AM 38.1 °F - 37.0 °F 96% 30.04 in 10.0 mi Calm Calm - N/A   Clear
4:35 AM 37.6 °F - 37.2 °F 99% 30.04 in 10.0 mi Calm Calm - N/A   Clear
4:55 AM 37.6 °F - 37.4 °F 99% 30.04 in 10.0 mi Calm Calm - N/A   Clear
5:15 AM 37.6 °F - 37.6 °F 100% 30.05 in 10.0 mi Calm Calm - N/A   Clear
5:35 AM 37.6 °F - 37.2 °F 99% 30.06 in 10.0 mi Calm Calm - N/A   Clear
5:55 AM 36.9 °F - 36.0 °F 97% 30.06 in 10.0 mi Calm Calm - N/A   Clear
6:15 AM 36.5 °F - 36.0 °F 98% 30.05 in 10.0 mi Calm Calm - N/A   Clear
6:35 AM 36.1 °F - 35.6 °F 98% 30.05 in 10.0 mi Calm Calm - N/A   Clear
6:55 AM 36.9 °F - 36.1 °F 97% 30.05 in 10.0 mi Calm Calm - N/A   Clear
7:15 AM 36.1 °F - 35.6 °F 98% 30.05 in 10.0 mi Calm Calm - N/A   Clear
7:35 AM 39.4 °F - 38.3 °F 96% 30.05 in 10.0 mi Calm Calm - N/A   Clear
7:55 AM 42.3 °F - 40.3 °F 93% 30.06 in 10.0 mi Calm Calm - N/A   Clear
8:15 AM 46.6 °F - 39.9 °F 78% 30.07 in 10.0 mi Calm Calm - N/A   Clear
8:35 AM 48.6 °F - 39.7 °F 72% 30.07 in 10.0 mi SW 3.5 mph - N/A   Clear
8:55 AM 49.6 °F - 38.5 °F 65% 30.07 in 10.0 mi SW 5.8 mph - N/A   Clear
9:15 AM 50.7 °F - 38.7 °F 63% 30.07 in 10.0 mi SW 8.1 mph - N/A   Clear
9:35 AM 51.8 °F - 39.6 °F 63% 30.07 in 10.0 mi SW 4.6 mph - N/A   Clear
9:55 AM 52.9 °F - 39.6 °F 61% 30.07 in 10.0 mi SW 9.2 mph - N/A   Clear
10:15 AM 54.7 °F - 40.1 °F 58% 30.07 in 10.0 mi SW 8.1 mph - N/A   Clear
10:35 AM 56.1 °F - 40.1 °F 55% 30.07 in 10.0 mi SW 9.2 mph - N/A   Clear
11:15 AM 59.5 °F - 41.4 °F 51% 30.06 in 10.0 mi SSW 6.9 mph - N/A   Clear
11:35 AM 61.2 °F - 41.7 °F 49% 30.06 in 10.0 mi WSW 8.1 mph - N/A   Clear
11:55 AM 60.8 °F - 40.6 °F 47% 30.05 in 10.0 mi SW 6.9 mph - N/A   Clear
12:15 PM 62.1 °F - 40.5 °F 45% 30.05 in 10.0 mi WSW 8.1 mph - N/A   Clear
12:55 PM 63.7 °F - 40.5 °F 43% 30.04 in 10.0 mi SW 9.2 mph - N/A   Clear
1:15 PM 64.2 °F - 40.6 °F 42% 30.02 in 10.0 mi SSW 6.9 mph - N/A   Clear
1:35 PM 64.8 °F - 40.6 °F 41% 30.02 in 10.0 mi SSW 8.1 mph - N/A   Clear
1:55 PM 65.3 °F - 39.7 °F 39% 30.01 in 10.0 mi South 12.7 mph 16.1 mph N/A   Clear
2:15 PM 66.0 °F - 39.6 °F 38% 30.00 in 10.0 mi SSW 8.1 mph - N/A   Clear
2:35 PM 66.4 °F - 40.1 °F 38% 30.00 in 10.0 mi SW 6.9 mph - N/A   Clear
2:55 PM 67.1 °F - 40.3 °F 38% 29.99 in 10.0 mi SSW 8.1 mph - N/A   Clear
3:15 PM 67.5 °F - 40.1 °F 37% 29.99 in 10.0 mi South 9.2 mph - N/A   Clear
3:35 PM 67.1 °F - 38.8 °F 35% 29.99 in 10.0 mi SSW 11.5 mph - N/A   Clear
4:15 PM 67.1 °F - 38.5 °F 35% 29.98 in 10.0 mi SSW 9.2 mph - N/A   Clear
4:35 PM 67.1 °F - 39.2 °F 36% 29.98 in 10.0 mi SW 4.6 mph - N/A   Clear
4:55 PM 66.4 °F - 39.6 °F 37% 29.98 in 10.0 mi SSW 6.9 mph - N/A   Clear
5:15 PM 66.2 °F - 40.1 °F 38% 29.97 in 10.0 mi SSW 4.6 mph - N/A   Clear
5:35 PM 64.9 °F - 41.2 °F 42% 29.97 in 10.0 mi SSW 5.8 mph - N/A   Clear
5:55 PM 63.1 °F - 40.3 °F 43% 29.97 in 10.0 mi South 5.8 mph - N/A   Clear
6:15 PM 61.2 °F - 39.7 °F 45% 29.97 in 10.0 mi South 5.8 mph - N/A   Clear
6:35 PM 59.7 °F - 39.2 °F 47% 29.98 in 10.0 mi South 4.6 mph - N/A   Clear
6:55 PM 59.0 °F - 39.6 °F 49% 29.99 in 10.0 mi South 5.8 mph - N/A   Clear
7:15 PM 57.6 °F - 40.8 °F 54% 29.99 in 10.0 mi Calm Calm - N/A   Clear
7:35 PM 56.5 °F - 41.0 °F 56% 30.00 in 10.0 mi Calm Calm - N/A   Clear
7:55 PM 55.8 °F - 41.2 °F 58% 30.01 in 10.0 mi Calm Calm - N/A   Clear
8:15 PM 55.4 °F - 41.5 °F 60% 30.02 in 10.0 mi Calm Calm - N/A   Clear
8:35 PM 54.9 °F - 41.9 °F 62% 30.02 in 10.0 mi Calm Calm - N/A   Clear
8:55 PM 54.7 °F - 41.7 °F 62% 30.02 in 10.0 mi South 3.5 mph - N/A   Clear
9:15 PM 53.6 °F - 41.7 °F 64% 30.02 in 10.0 mi South 4.6 mph - N/A   Clear
9:35 PM 53.2 °F - 41.4 °F 64% 30.03 in 10.0 mi South 3.5 mph - N/A   Clear
9:55 PM 52.0 °F - 42.3 °F 69% 30.03 in 10.0 mi South 4.6 mph - N/A   Clear
10:35 PM 52.0 °F - 43.3 °F 72% 30.04 in 10.0 mi South 3.5 mph - N/A   Clear
10:55 PM 51.8 °F - 43.3 °F 73% 30.04 in 10.0 mi SSW 4.6 mph - N/A   Clear
11:15 PM 50.9 °F - 43.0 °F 74% 30.03 in 10.0 mi South 3.5 mph - N/A   Clear
11:35 PM 51.4 °F - 43.0 °F 73% 30.04 in 10.0 mi Calm Calm - N/A   Clear
11:55 PM 46.8 °F - 42.4 °F 85% 30.04 in 10.0 mi Calm Calm - N/A   Clear